sat.trackr.live / text

‹ back to catalog

MAROC-TUBSAT

NORAD 27004 · 2001-056D

PAYLOAD ACTIVE UNKNOWN

§ Identity

Operator
Country
GER
Launch date
2001-12-10
Launch site
TYMSC
Launch vehicle
Mass (kg)
RCS (m²)
0.35

Purposes: earth_obs

External: N2YO · Heavens-Above · Gunter

§ Orbital elements

Epoch: 2026-09-19T22:40:41.219328Z

Period
105.09 min
Inclination
99.8136°
Eccentricity
0.0019054
Mean motion
13.70265683 rev/d
Perigee alt
984.6 km
Apogee alt
1,012.7 km
Semi-major
7,376.8 km
B*
2.4372e-5
RAAN
81.6266°
Arg perigee
260.1317°
Mean anomaly
266.6445°
Rev number
23,916

§ Raw data

MAROC-TUBSAT1 27004U 01056D   26262.94492152 -.00000025  00000+0  24372-4 0  99982 27004  99.8136  81.6266 0019054 260.1317 266.6445 13.70265683239164

JSON: /api/v1/satellites/27004 · /tle

For live sub-satellite position, see the globe view (requires WebGL).

§ Visibility from observer

Set your observer location to see the next 7 days of passes ≥ 10°. The values pass through the URL so the page stays shareable.

No JS? Fill the form by hand. The geolocation button needs JavaScript.